Location: Kitt Peak
(31.9639°N, 111.5992°W)
Time: 03:26:10
(UTC-07:00)

BUGSAT 1 - Visible Passes

Search period start: 16 September 2024 00:00
Search period end: 26 September 2024 00:00
Orbit: 525 x 573 km, 98.1° (Epoch: 15 September)

Date Brightness Start Highest point End Pass type
(mag) Time Alt. Az. Time Alt. Az. Time Alt. Az.
16 Sep ? 21:14:50 15° NNW 21:14:50 15° NNW 21:15:33 10° NNW visible
17 Sep ? 21:10:22 14° NNW 21:10:22 14° NNW 21:11:00 10° NNW visible
18 Sep ? 21:05:52 14° NNW 21:05:52 14° NNW 21:06:25 10° NNW visible
19 Sep ? 21:01:20 13° NNW 21:01:20 13° NNW 21:01:48 10° NNW visible
20 Sep ? 20:56:48 12° NNW 20:56:48 12° NNW 20:57:08 10° NNW visible
21 Sep ? 20:52:14 11° N 20:52:14 11° N 20:52:26 10° N visible
22 Sep ? 20:47:38 10° N 20:47:38 10° N 20:47:42 10° N visible
